STARLINK-35286

Last updated on Mon Oct 20 2025 00:02:07 GMT+0000 (Coordinated Universal Time)

1 65803U 25218N 25292.26260093 .00126269 00000+0 22822-2 0 9991 2 65803 97.6027 152.8394 0001428 94.1073 266.0341 15.49238249 3648
UTC large
Height (km)
Speed (km/s)
/
Latitude / Longitude
Inclination (degrees)
Orbital Period (minutes)
Azimuth
Elevation
Range (km)
Doppler Factor

Next 0 passes for location: London (51.5072 / 0.1276)

Sorry there are no passes over London.